Time,TemperatureF,DewpointF,PressureIn,WindDirection,WindDirectionDegrees,WindSpeedMPH,WindSpeedGustMPH,Humidity,HourlyPrecipIn,Conditions,Clouds,dailyrainin,SolarRadiationWatts/m^2,SoftwareType,DateUTC
2013-09-07 00:00:00,77.1,69.7,29.81,SSE,163,0.0,0.0,78,0.00,,---,0.00,0.00,VWS V14.00,2013-09-07 05:00:00,
2013-09-07 00:05:00,77.1,69.7,29.81,SSE,163,0.0,0.0,78,0.00,,---,0.00,0.00,VWS V14.00,2013-09-07 05:05:00,
2013-09-07 00:10:00,76.9,69.9,29.81,SSE,163,0.0,0.0,79,0.00,,---,0.00,0.00,VWS V14.00,2013-09-07 05:10:00,
2013-09-07 00:15:00,76.7,69.7,29.81,SSE,163,0.0,0.0,79,0.00,,---,0.00,0.00,VWS V14.00,2013-09-07 05:15:00,
2013-09-07 00:21:00,76.6,69.6,29.81,SSE,163,0.0,0.0,79,0.00,,---,0.00,0.00,VWS V14.00,2013-09-07 05:21:00,
2013-09-07 00:26:00,76.4,69.8,29.82,SSE,163,0.0,0.0,80,0.00,,---,0.00,0.00,VWS V14.00,2013-09-07 05:26:00,
2013-09-07 00:31:00,76.2,69.6,29.82,SSE,163,0.0,0.0,80,0.00,,---,0.00,0.00,VWS V14.00,2013-09-07 05:31:00,
2013-09-07 00:36:00,76.1,69.5,29.81,SSE,163,0.0,0.0,80,0.00,,---,0.00,0.00,VWS V14.00,2013-09-07 05:36:00,
2013-09-07 00:41:00,76.0,69.4,29.82,SSE,163,0.0,0.0,80,0.00,,---,0.00,0.00,VWS V14.00,2013-09-07 05:41:00,
2013-09-07 00:46:00,75.8,69.2,29.82,SSE,163,0.0,0.0,80,0.00,,---,0.00,0.00,VWS V14.00,2013-09-07 05:46:00,
2013-09-07 00:51:00,75.7,69.5,29.82,SSE,163,0.0,0.0,81,0.00,,---,0.00,0.00,VWS V14.00,2013-09-07 05:51:00,
2013-09-07 00:56:00,75.5,69.3,29.81,SSE,163,0.0,0.0,81,0.00,,---,0.00,0.00,VWS V14.00,2013-09-07 05:56:00,
2013-09-07 01:01:00,75.3,69.1,29.82,SSE,163,0.0,0.0,81,0.00,,---,0.00,0.00,VWS V14.00,2013-09-07 06:01:00,
2013-09-07 01:06:00,75.1,69.2,29.81,SSE,163,0.0,0.0,82,0.00,,---,0.00,0.00,VWS V14.00,2013-09-07 06:06:00,
2013-09-07 01:11:00,75.0,69.1,29.82,SSE,163,0.0,0.0,82,0.00,,---,0.00,0.00,VWS V14.00,2013-09-07 06:11:00,
2013-09-07 01:17:00,74.8,68.9,29.82,SSE,163,0.0,0.0,82,0.00,,---,0.00,0.00,VWS V14.00,2013-09-07 06:17:00,
2013-09-07 01:22:00,74.7,68.8,29.82,SSE,163,0.0,0.0,82,0.00,,---,0.00,0.00,VWS V14.00,2013-09-07 06:22:00,
2013-09-07 01:27:00,74.6,69.1,29.82,SSE,163,0.0,0.0,83,0.00,,---,0.00,0.00,VWS V14.00,2013-09-07 06:27:00,
2013-09-07 01:32:00,74.5,68.7,29.82,SSE,163,0.0,0.0,82,0.00,,---,0.00,0.00,VWS V14.00,2013-09-07 06:32:00,
2013-09-07 01:37:00,74.4,68.9,29.82,SSE,163,0.0,0.0,83,0.00,,---,0.00,0.00,VWS V14.00,2013-09-07 06:37:00,
2013-09-07 01:42:00,74.4,68.9,29.81,SSE,163,0.0,0.0,83,0.00,,---,0.00,0.00,VWS V14.00,2013-09-07 06:42:00,
2013-09-07 01:47:00,74.3,68.8,29.82,SSE,163,0.0,0.0,83,0.00,,---,0.00,0.00,VWS V14.00,2013-09-07 06:47:00,
2013-09-07 01:52:00,74.2,68.7,29.82,SSE,163,0.0,0.0,83,0.00,,---,0.00,0.00,VWS V14.00,2013-09-07 06:52:00,
2013-09-07 01:57:00,74.1,68.6,29.81,SSE,163,0.0,0.0,83,0.00,,---,0.00,0.00,VWS V14.00,2013-09-07 06:57:00,
2013-09-07 02:02:00,73.9,68.4,29.81,SSE,163,0.0,0.0,83,0.00,,---,0.00,0.00,VWS V14.00,2013-09-07 07:02:00,
2013-09-07 02:08:00,73.8,68.7,29.82,SSE,163,0.0,0.0,84,0.00,,---,0.00,0.00,VWS V14.00,2013-09-07 07:08:00,
2013-09-07 02:13:00,73.7,68.6,29.82,SSE,163,0.0,0.0,84,0.00,,---,0.00,0.00,VWS V14.00,2013-09-07 07:13:00,
2013-09-07 02:18:00,73.6,68.5,29.81,SSE,163,0.0,0.0,84,0.00,,---,0.00,0.00,VWS V14.00,2013-09-07 07:18:00,
2013-09-07 02:23:00,73.4,68.3,29.81,SSE,163,0.0,0.0,84,0.00,,---,0.00,0.00,VWS V14.00,2013-09-07 07:23:00,
2013-09-07 02:28:00,73.3,68.2,29.81,SSE,163,0.0,0.0,84,0.00,,---,0.00,0.00,VWS V14.00,2013-09-07 07:28:00,
2013-09-07 02:33:00,73.1,68.3,29.81,SSE,163,0.0,0.0,85,0.00,,---,0.00,0.00,VWS V14.00,2013-09-07 07:33:00,
2013-09-07 02:38:00,73.0,68.2,29.81,SSE,163,0.0,0.0,85,0.00,,---,0.00,0.00,VWS V14.00,2013-09-07 07:38:00,
2013-09-07 02:43:00,72.8,68.0,29.81,SSE,163,0.0,0.0,85,0.00,,---,0.00,0.00,VWS V14.00,2013-09-07 07:43:00,
2013-09-07 02:49:00,72.7,67.9,29.81,SSE,163,0.0,0.0,85,0.00,,---,0.00,0.00,VWS V14.00,2013-09-07 07:49:00,
2013-09-07 02:54:00,72.5,67.7,29.81,SSE,163,0.0,0.0,85,0.00,,---,0.00,0.00,VWS V14.00,2013-09-07 07:54:00,
2013-09-07 02:59:00,72.4,68.0,29.81,SSE,163,0.0,0.0,86,0.00,,---,0.00,0.00,VWS V14.00,2013-09-07 07:59:00,
2013-09-07 03:04:00,72.2,67.8,29.81,SSE,163,0.0,0.0,86,0.00,,---,0.00,0.00,VWS V14.00,2013-09-07 08:04:00,
2013-09-07 03:09:00,72.1,67.7,29.81,SSE,163,0.0,0.0,86,0.00,,---,0.00,0.00,VWS V14.00,2013-09-07 08:09:00,
2013-09-07 03:14:00,72.0,67.6,29.81,SSE,163,0.0,0.0,86,0.00,,---,0.00,0.00,VWS V14.00,2013-09-07 08:14:00,
2013-09-07 03:19:00,71.9,67.8,29.81,SSE,163,0.0,0.0,87,0.00,,---,0.00,0.00,VWS V14.00,2013-09-07 08:19:00,
2013-09-07 03:24:00,71.9,67.8,29.80,SSE,163,0.0,0.0,87,0.00,,---,0.00,0.00,VWS V14.00,2013-09-07 08:24:00,
2013-09-07 03:29:00,71.9,67.8,29.80,SSE,163,0.0,0.0,87,0.00,,---,0.00,0.00,VWS V14.00,2013-09-07 08:29:00,
2013-09-07 03:34:00,71.8,67.7,29.80,SSE,163,0.0,0.0,87,0.00,,---,0.00,0.00,VWS V14.00,2013-09-07 08:34:00,
2013-09-07 03:40:00,71.8,67.7,29.80,SSE,163,0.0,0.0,87,0.00,,---,0.00,0.00,VWS V14.00,2013-09-07 08:40:00,
2013-09-07 03:45:00,71.9,67.8,29.80,SSE,164,0.0,0.0,87,0.00,,---,0.00,0.00,VWS V14.00,2013-09-07 08:45:00,
2013-09-07 03:50:00,71.9,67.8,29.80,SSE,164,0.0,0.0,87,0.00,,---,0.00,0.00,VWS V14.00,2013-09-07 08:50:00,
2013-09-07 03:55:00,72.0,67.9,29.79,SSE,165,0.0,0.0,87,0.00,,---,0.00,0.00,VWS V14.00,2013-09-07 08:55:00,
2013-09-07 04:00:00,72.1,67.7,29.79,SSE,166,0.0,0.0,86,0.00,,---,0.00,0.00,VWS V14.00,2013-09-07 09:00:00,
2013-09-07 04:05:00,72.1,67.7,29.79,SSE,166,0.0,0.0,86,0.00,,---,0.00,0.00,VWS V14.00,2013-09-07 09:05:00,
2013-09-07 04:10:00,72.2,67.8,29.79,SSE,166,0.0,0.0,86,0.00,,---,0.00,0.00,VWS V14.00,2013-09-07 09:10:00,
2013-09-07 04:15:00,72.3,67.9,29.79,SSE,166,0.0,0.0,86,0.00,,---,0.00,0.00,VWS V14.00,2013-09-07 09:15:00,
2013-09-07 04:20:00,72.4,68.0,29.79,South,172,0.0,0.0,86,0.00,,---,0.00,0.00,VWS V14.00,2013-09-07 09:20:00,
2013-09-07 04:25:00,72.4,68.0,29.79,South,173,0.0,0.0,86,0.00,,---,0.00,0.00,VWS V14.00,2013-09-07 09:25:00,
2013-09-07 04:30:00,72.4,68.0,29.79,South,176,0.0,0.0,86,0.00,,---,0.00,0.00,VWS V14.00,2013-09-07 09:30:00,
2013-09-07 04:35:00,72.4,68.0,29.79,South,176,0.0,0.0,86,0.00,,---,0.00,0.00,VWS V14.00,2013-09-07 09:35:00,
2013-09-07 04:40:00,72.4,68.0,29.79,South,170,0.0,0.0,86,0.00,,---,0.00,0.00,VWS V14.00,2013-09-07 09:40:00,
2013-09-07 04:45:00,72.4,68.0,29.79,South,171,0.0,0.0,86,0.00,,---,0.00,0.00,VWS V14.00,2013-09-07 09:45:00,
2013-09-07 04:50:00,72.4,68.0,29.79,South,172,0.0,0.0,86,0.00,,---,0.00,0.00,VWS V14.00,2013-09-07 09:50:00,
2013-09-07 04:55:00,72.3,67.9,29.79,South,172,0.0,0.0,86,0.00,,---,0.00,0.00,VWS V14.00,2013-09-07 09:55:00,
2013-09-07 05:00:00,72.3,67.9,29.79,South,172,0.0,0.0,86,0.00,,---,0.00,0.00,VWS V14.00,2013-09-07 10:00:00,
2013-09-07 05:05:00,72.3,67.5,29.79,South,172,0.0,0.0,85,0.00,,---,0.00,0.00,VWS V14.00,2013-09-07 10:05:00,
2013-09-07 05:10:00,72.2,67.8,29.78,South,172,0.0,0.0,86,0.00,,---,0.00,0.00,VWS V14.00,2013-09-07 10:10:00,
2013-09-07 05:15:00,72.1,67.7,29.78,South,172,0.0,0.0,86,0.00,,---,0.00,0.00,VWS V14.00,2013-09-07 10:15:00,
2013-09-07 05:20:00,72.0,67.6,29.79,South,172,0.0,0.0,86,0.00,,---,0.00,0.00,VWS V14.00,2013-09-07 10:20:00,
2013-09-07 05:25:00,71.9,67.5,29.78,South,172,0.0,0.0,86,0.00,,---,0.00,0.00,VWS V14.00,2013-09-07 10:25:00,
2013-09-07 05:30:00,71.8,67.4,29.78,South,171,0.0,0.0,86,0.00,,---,0.00,0.00,VWS V14.00,2013-09-07 10:30:00,
2013-09-07 05:35:00,71.7,67.3,29.78,South,171,0.0,0.0,86,0.00,,---,0.00,0.00,VWS V14.00,2013-09-07 10:35:00,
2013-09-07 05:40:00,71.6,67.2,29.78,South,171,0.0,0.0,86,0.00,,---,0.00,0.00,VWS V14.00,2013-09-07 10:40:00,
2013-09-07 05:45:00,71.5,67.4,29.78,South,172,0.0,0.0,87,0.00,,---,0.00,0.00,VWS V14.00,2013-09-07 10:45:00,
2013-09-07 05:50:00,71.3,67.2,29.78,South,171,0.0,0.0,87,0.00,,---,0.00,0.00,VWS V14.00,2013-09-07 10:50:00,
2013-09-07 05:55:00,71.2,67.1,29.78,South,171,0.0,0.0,87,0.00,,---,0.00,0.00,VWS V14.00,2013-09-07 10:55:00,
2013-09-07 06:00:00,71.1,67.0,29.78,South,171,0.0,0.0,87,0.00,,---,0.00,0.00,VWS V14.00,2013-09-07 11:00:00,
2013-09-07 06:05:00,71.0,67.3,29.78,South,171,0.0,0.0,88,0.00,,---,0.00,0.00,VWS V14.00,2013-09-07 11:05:00,
2013-09-07 06:10:00,71.0,67.3,29.78,South,171,0.0,0.0,88,0.00,,---,0.00,0.00,VWS V14.00,2013-09-07 11:10:00,
2013-09-07 06:15:00,71.0,67.3,29.77,South,171,0.0,0.0,88,0.00,,---,0.00,0.00,VWS V14.00,2013-09-07 11:15:00,
2013-09-07 06:20:00,71.0,67.3,29.78,South,171,0.0,0.0,88,0.00,,---,0.00,0.00,VWS V14.00,2013-09-07 11:20:00,
2013-09-07 06:26:00,71.0,67.3,29.77,South,171,0.0,0.0,88,0.00,,---,0.00,0.00,VWS V14.00,2013-09-07 11:26:00,
2013-09-07 06:31:00,71.1,67.4,29.77,South,171,0.0,0.0,88,0.00,,---,0.00,0.00,VWS V14.00,2013-09-07 11:31:00,
2013-09-07 06:36:00,71.1,67.4,29.78,South,169,0.0,0.0,88,0.00,,---,0.00,0.00,VWS V14.00,2013-09-07 11:36:00,
2013-09-07 06:41:00,71.2,67.5,29.77,South,169,0.0,0.0,88,0.00,,---,0.00,0.00,VWS V14.00,2013-09-07 11:41:00,
2013-09-07 06:46:00,71.2,67.1,29.78,South,169,0.0,0.0,87,0.00,,---,0.00,0.00,VWS V14.00,2013-09-07 11:46:00,
2013-09-07 06:51:00,71.3,67.2,29.78,South,169,0.0,0.0,87,0.00,,---,0.00,0.00,VWS V14.00,2013-09-07 11:51:00,
2013-09-07 06:56:00,71.4,67.3,29.79,South,169,0.0,0.0,87,0.00,,---,0.00,0.00,VWS V14.00,2013-09-07 11:56:00,
2013-09-07 07:01:00,71.4,67.3,29.79,South,169,0.0,0.0,87,0.00,,---,0.00,5.00,VWS V14.00,2013-09-07 12:01:00,
2013-09-07 07:07:00,71.4,67.3,29.79,South,169,0.0,0.0,87,0.00,,---,0.00,7.00,VWS V14.00,2013-09-07 12:07:00,
2013-09-07 07:12:00,71.4,67.3,29.79,South,169,0.0,0.0,87,0.00,,---,0.00,11.00,VWS V14.00,2013-09-07 12:12:00,
2013-09-07 07:17:00,71.5,67.1,29.79,South,169,0.0,0.0,86,0.00,,---,0.00,12.00,VWS V14.00,2013-09-07 12:17:00,
2013-09-07 07:22:00,71.5,67.1,29.79,South,169,0.0,0.0,86,0.00,,---,0.00,16.00,VWS V14.00,2013-09-07 12:22:00,
2013-09-07 07:27:00,71.5,67.1,29.79,South,169,0.0,0.0,86,0.00,,---,0.00,23.00,VWS V14.00,2013-09-07 12:27:00,
2013-09-07 07:32:00,71.4,67.0,29.80,South,169,0.0,0.0,86,0.00,,---,0.00,25.00,VWS V14.00,2013-09-07 12:32:00,
2013-09-07 07:37:00,71.4,67.0,29.80,South,169,0.0,0.0,86,0.00,,---,0.00,26.00,VWS V14.00,2013-09-07 12:37:00,
2013-09-07 07:42:00,71.3,67.2,29.79,South,169,0.0,0.0,87,0.00,,---,0.00,32.00,VWS V14.00,2013-09-07 12:42:00,
2013-09-07 07:48:00,71.3,67.2,29.80,South,169,0.0,0.0,87,0.00,,---,0.00,32.00,VWS V14.00,2013-09-07 12:48:00,
2013-09-07 07:53:00,71.3,67.2,29.79,South,169,0.0,0.0,87,0.00,,---,0.00,33.00,VWS V14.00,2013-09-07 12:53:00,
2013-09-07 07:58:00,71.3,67.2,29.80,South,169,0.0,0.0,87,0.00,,---,0.00,40.00,VWS V14.00,2013-09-07 12:58:00,
2013-09-07 08:03:00,71.2,67.1,29.79,South,169,0.0,0.0,87,0.00,,---,0.00,65.00,VWS V14.00,2013-09-07 13:03:00,
2013-09-07 08:08:00,71.3,67.2,29.80,South,169,0.0,0.0,87,0.00,,---,0.00,74.00,VWS V14.00,2013-09-07 13:08:00,
2013-09-07 08:13:00,71.4,67.7,29.79,South,169,0.0,0.0,88,0.00,,---,0.00,74.00,VWS V14.00,2013-09-07 13:13:00,
2013-09-07 08:18:00,71.5,67.8,29.80,South,169,0.0,0.0,88,0.00,,---,0.00,76.00,VWS V14.00,2013-09-07 13:18:00,
2013-09-07 08:23:00,71.6,67.9,29.79,South,169,0.0,0.0,88,0.00,,---,0.00,97.00,VWS V14.00,2013-09-07 13:23:00,
2013-09-07 08:29:00,71.8,68.1,29.79,South,169,0.0,0.0,88,0.00,,---,0.00,104.00,VWS V14.00,2013-09-07 13:29:00,
2013-09-07 08:34:00,72.0,68.3,29.79,South,169,0.0,0.0,88,0.00,,---,0.00,86.00,VWS V14.00,2013-09-07 13:34:00,
2013-09-07 08:39:00,72.2,68.4,29.79,South,169,0.0,0.0,88,0.00,,---,0.00,111.00,VWS V14.00,2013-09-07 13:39:00,
2013-09-07 08:44:00,72.4,68.3,29.79,South,169,0.0,0.0,87,0.00,,---,0.00,151.00,VWS V14.00,2013-09-07 13:44:00,
2013-09-07 08:49:00,72.6,68.8,29.79,South,169,0.0,0.0,88,0.00,,---,0.00,130.00,VWS V14.00,2013-09-07 13:49:00,
2013-09-07 08:54:00,72.9,68.8,29.80,South,169,0.0,0.0,87,0.00,,---,0.00,120.00,VWS V14.00,2013-09-07 13:54:00,
2013-09-07 08:59:00,73.0,68.6,29.79,South,169,0.0,0.0,86,0.00,,---,0.00,116.00,VWS V14.00,2013-09-07 13:59:00,
2013-09-07 09:04:00,73.2,68.8,29.80,South,169,0.0,0.0,86,0.00,,---,0.00,125.00,VWS V14.00,2013-09-07 14:04:00,
2013-09-07 09:09:00,73.3,68.9,29.79,South,169,0.0,0.0,86,0.00,,---,0.00,142.00,VWS V14.00,2013-09-07 14:09:00,
2013-09-07 09:15:00,73.5,68.7,29.80,South,169,0.0,0.0,85,0.00,,---,0.00,162.00,VWS V14.00,2013-09-07 14:15:00,
2013-09-07 09:20:00,73.8,69.0,29.80,South,169,0.0,0.0,85,0.00,,---,0.00,186.00,VWS V14.00,2013-09-07 14:20:00,
2013-09-07 09:25:00,74.1,69.0,29.79,South,169,0.0,0.0,84,0.00,,---,0.00,380.00,VWS V14.00,2013-09-07 14:25:00,
2013-09-07 09:30:00,74.5,69.0,29.79,South,169,0.0,0.0,83,0.00,,---,0.00,213.00,VWS V14.00,2013-09-07 14:30:00,
2013-09-07 09:35:00,74.8,69.3,29.80,South,169,0.0,0.0,83,0.00,,---,0.00,241.00,VWS V14.00,2013-09-07 14:35:00,
2013-09-07 09:40:00,75.2,69.7,29.80,South,169,0.0,0.0,83,0.00,,---,0.00,338.00,VWS V14.00,2013-09-07 14:40:00,
2013-09-07 09:45:00,75.6,69.7,29.80,South,169,0.0,0.0,82,0.00,,---,0.00,230.00,VWS V14.00,2013-09-07 14:45:00,
2013-09-07 09:50:00,75.9,69.7,29.80,South,169,0.0,0.0,81,0.00,,---,0.00,243.00,VWS V14.00,2013-09-07 14:50:00,
2013-09-07 09:55:00,76.3,69.7,29.79,South,169,0.0,0.0,80,0.00,,---,0.00,294.00,VWS V14.00,2013-09-07 14:55:00,
2013-09-07 10:00:00,76.6,69.6,29.79,South,169,0.0,0.0,79,0.00,,---,0.00,413.00,VWS V14.00,2013-09-07 15:00:00,
2013-09-07 10:05:00,77.1,69.7,29.79,South,169,0.0,0.0,78,0.00,,---,0.00,415.00,VWS V14.00,2013-09-07 15:05:00,
2013-09-07 10:10:00,77.6,69.8,29.78,South,169,0.0,0.0,77,0.00,,---,0.00,311.00,VWS V14.00,2013-09-07 15:10:00,
2013-09-07 10:15:00,77.9,70.1,29.78,South,169,0.0,0.0,77,0.00,,---,0.00,487.00,VWS V14.00,2013-09-07 15:15:00,
2013-09-07 10:20:00,78.3,70.1,29.79,South,169,0.0,0.0,76,0.00,,---,0.00,503.00,VWS V14.00,2013-09-07 15:20:00,
2013-09-07 10:25:00,78.7,69.7,29.80,South,169,0.0,0.0,74,0.00,,---,0.00,415.00,VWS V14.00,2013-09-07 15:25:00,
2013-09-07 10:30:00,79.2,70.2,29.80,South,169,0.0,0.0,74,0.00,,---,0.00,283.00,VWS V14.00,2013-09-07 15:30:00,
2013-09-07 10:35:00,79.7,70.7,29.80,South,169,0.0,0.0,74,0.00,,---,0.00,279.00,VWS V14.00,2013-09-07 15:35:00,
2013-09-07 10:40:00,80.1,70.3,29.80,South,169,0.0,0.0,72,0.00,,---,0.00,454.00,VWS V14.00,2013-09-07 15:40:00,
2013-09-07 10:45:00,80.5,70.2,29.81,South,169,0.0,0.0,71,0.00,,---,0.00,380.00,VWS V14.00,2013-09-07 15:45:00,
2013-09-07 10:50:00,80.8,70.5,29.80,South,169,0.0,0.0,71,0.00,,---,0.00,403.00,VWS V14.00,2013-09-07 15:50:00,
2013-09-07 10:55:00,81.1,70.8,29.82,South,169,0.0,0.0,71,0.00,,---,0.00,418.00,VWS V14.00,2013-09-07 15:55:00,
2013-09-07 11:00:00,81.4,70.7,29.81,South,169,0.0,2.0,70,0.00,,---,0.00,366.00,VWS V14.00,2013-09-07 16:00:00,
2013-09-07 11:05:00,81.7,70.6,29.81,South,169,0.0,0.0,69,0.00,,---,0.00,483.00,VWS V14.00,2013-09-07 16:05:00,
2013-09-07 11:10:00,82.0,70.8,29.82,South,169,0.0,0.0,69,0.00,,---,0.00,485.00,VWS V14.00,2013-09-07 16:10:00,
2013-09-07 11:16:00,82.3,70.7,29.82,South,169,0.0,0.0,68,0.00,,---,0.00,364.00,VWS V14.00,2013-09-07 16:16:00,
2013-09-07 11:21:00,82.5,70.4,29.82,South,169,0.0,1.0,67,0.00,,---,0.00,214.00,VWS V14.00,2013-09-07 16:21:00,
2013-09-07 11:26:00,82.5,70.9,29.82,South,169,0.0,0.0,68,0.00,,---,0.00,223.00,VWS V14.00,2013-09-07 16:26:00,
2013-09-07 11:31:00,82.4,70.3,29.82,South,169,0.0,0.0,67,0.00,,---,0.00,276.00,VWS V14.00,2013-09-07 16:31:00,
2013-09-07 11:36:00,82.2,69.7,29.81,South,169,0.0,0.0,66,0.00,,---,0.00,346.00,VWS V14.00,2013-09-07 16:36:00,
2013-09-07 11:41:00,82.0,70.0,29.81,South,169,0.0,0.0,67,0.00,,---,0.00,248.00,VWS V14.00,2013-09-07 16:41:00,
2013-09-07 11:46:00,81.6,70.0,29.81,South,169,0.0,0.0,68,0.00,,---,0.00,211.00,VWS V14.00,2013-09-07 16:46:00,
2013-09-07 11:51:00,81.3,69.7,29.80,South,169,0.0,0.0,68,0.00,,---,0.00,174.00,VWS V14.00,2013-09-07 16:51:00,
2013-09-07 11:56:00,81.1,70.0,29.81,South,169,0.0,0.0,69,0.00,,---,0.00,137.00,VWS V14.00,2013-09-07 16:56:00,
2013-09-07 12:01:00,80.9,70.2,29.87,NW,323,0.0,2.0,70,0.00,,---,0.00,141.00,VWS V14.00,2013-09-07 17:01:00,
2013-09-07 12:07:00,80.5,70.2,29.84,NW,313,0.0,1.0,71,0.00,,---,0.00,174.00,VWS V14.00,2013-09-07 17:07:00,
2013-09-07 12:12:00,80.2,70.4,29.86,NW,319,0.0,0.0,72,0.00,,---,0.00,167.00,VWS V14.00,2013-09-07 17:12:00,
2013-09-07 12:17:00,79.8,70.0,29.85,NNW,335,0.0,1.0,72,0.00,,---,0.00,163.00,VWS V14.00,2013-09-07 17:17:00,
2013-09-07 12:22:00,79.5,69.7,29.85,NNW,333,0.0,1.0,72,0.00,,---,0.00,176.00,VWS V14.00,2013-09-07 17:22:00,
2013-09-07 12:27:00,79.1,69.7,29.85,NNW,335,0.0,0.0,73,0.00,,---,0.00,207.00,VWS V14.00,2013-09-07 17:27:00,
2013-09-07 12:32:00,78.9,70.3,29.84,NNW,336,0.0,1.0,75,0.00,,---,0.00,241.00,VWS V14.00,2013-09-07 17:32:00,
2013-09-07 12:37:00,78.7,70.5,29.84,NNW,341,0.0,0.0,76,0.00,,---,0.00,272.00,VWS V14.00,2013-09-07 17:37:00,
2013-09-07 12:42:00,78.7,70.9,29.84,NNW,343,1.0,2.0,77,0.00,,---,0.00,308.00,VWS V14.00,2013-09-07 17:42:00,
2013-09-07 12:48:00,78.8,71.0,29.83,NNW,344,0.0,1.0,77,0.00,,---,0.00,355.00,VWS V14.00,2013-09-07 17:48:00,
2013-09-07 12:53:00,79.0,70.8,29.83,NNW,344,0.0,0.0,76,0.00,,---,0.00,487.00,VWS V14.00,2013-09-07 17:53:00,
2013-09-07 12:58:00,79.5,70.9,29.83,NNW,344,0.0,1.0,75,0.00,,---,0.00,422.00,VWS V14.00,2013-09-07 17:58:00,
2013-09-07 13:03:00,79.9,71.3,29.83,NNW,344,0.0,0.0,75,0.00,,---,0.00,301.00,VWS V14.00,2013-09-07 18:03:00,
2013-09-07 13:08:00,80.1,71.1,29.83,NNW,344,0.0,0.0,74,0.00,,---,0.00,218.00,VWS V14.00,2013-09-07 18:08:00,
2013-09-07 13:13:00,80.3,71.3,29.83,NNW,344,0.0,0.0,74,0.00,,---,0.00,200.00,VWS V14.00,2013-09-07 18:13:00,
2013-09-07 13:18:00,80.3,71.3,29.82,NNW,344,0.0,0.0,74,0.00,,---,0.00,195.00,VWS V14.00,2013-09-07 18:18:00,
2013-09-07 13:23:00,80.3,71.7,29.82,NNW,344,0.0,0.0,75,0.00,,---,0.00,192.00,VWS V14.00,2013-09-07 18:23:00,
2013-09-07 13:28:00,80.2,70.8,29.81,East,80,0.0,0.0,73,0.00,,---,0.00,216.00,VWS V14.00,2013-09-07 18:28:00,
2013-09-07 13:33:00,80.1,70.7,29.81,ESE,108,0.0,6.0,73,0.00,,---,0.00,214.00,VWS V14.00,2013-09-07 18:33:00,
2013-09-07 13:38:00,80.1,70.7,29.81,ESE,114,0.0,0.0,73,0.00,,---,0.00,227.00,VWS V14.00,2013-09-07 18:38:00,
2013-09-07 13:43:00,80.1,71.1,29.81,ESE,115,0.0,0.0,74,0.00,,---,0.00,278.00,VWS V14.00,2013-09-07 18:43:00,
2013-09-07 13:49:00,80.2,71.6,29.81,ESE,112,0.0,2.0,75,0.00,,---,0.00,355.00,VWS V14.00,2013-09-07 18:49:00,
2013-09-07 13:54:00,80.4,71.4,29.81,ESE,113,0.0,4.0,74,0.00,,---,0.00,388.00,VWS V14.00,2013-09-07 18:54:00,
2013-09-07 13:59:00,80.6,71.6,29.81,ESE,113,0.0,0.0,74,0.00,,---,0.00,297.00,VWS V14.00,2013-09-07 18:59:00,
2013-09-07 14:04:00,80.8,70.9,29.82,ESE,111,0.0,1.0,72,0.00,,---,0.00,301.00,VWS V14.00,2013-09-07 19:04:00,
2013-09-07 14:09:00,81.0,71.1,29.81,ESE,111,0.0,1.0,72,0.00,,---,0.00,302.00,VWS V14.00,2013-09-07 19:09:00,
2013-09-07 14:14:00,81.2,71.7,29.82,ESE,111,0.0,1.0,73,0.00,,---,0.00,311.00,VWS V14.00,2013-09-07 19:14:00,
2013-09-07 14:19:00,81.5,71.6,29.82,ESE,109,0.0,1.0,72,0.00,,---,0.00,297.00,VWS V14.00,2013-09-07 19:19:00,
2013-09-07 14:24:00,81.6,71.3,29.82,ESE,109,0.0,1.0,71,0.00,,---,0.00,295.00,VWS V14.00,2013-09-07 19:24:00,
2013-09-07 14:29:00,81.7,71.4,29.82,ESE,109,0.0,0.0,71,0.00,,---,0.00,283.00,VWS V14.00,2013-09-07 19:29:00,
2013-09-07 14:35:00,81.8,71.1,29.82,ESE,109,0.0,0.0,70,0.00,,---,0.00,297.00,VWS V14.00,2013-09-07 19:35:00,
2013-09-07 14:40:00,81.9,71.2,29.82,ESE,109,0.0,0.0,70,0.00,,---,0.00,299.00,VWS V14.00,2013-09-07 19:40:00,
2013-09-07 14:45:00,82.1,71.8,29.82,ESE,109,0.0,0.0,71,0.00,,---,0.00,323.00,VWS V14.00,2013-09-07 19:45:00,
2013-09-07 14:50:00,82.3,72.0,29.83,ESE,109,0.0,0.0,71,0.00,,---,0.00,378.00,VWS V14.00,2013-09-07 19:50:00,
2013-09-07 14:55:00,82.7,71.9,29.83,ESE,109,0.0,0.0,70,0.00,,---,0.00,394.00,VWS V14.00,2013-09-07 19:55:00,
2013-09-07 15:00:00,83.0,72.2,29.82,ESE,109,0.0,0.0,70,0.00,,---,0.00,424.00,VWS V14.00,2013-09-07 20:00:00,
2013-09-07 15:05:00,83.4,72.2,29.82,ESE,109,0.0,0.0,69,0.00,,---,0.00,468.00,VWS V14.00,2013-09-07 20:05:00,
2013-09-07 15:10:00,83.6,71.5,29.82,ESE,109,0.0,0.0,67,0.00,,---,0.00,369.00,VWS V14.00,2013-09-07 20:10:00,
2013-09-07 15:15:00,83.8,71.7,29.83,ESE,109,0.0,0.0,67,0.00,,---,0.00,357.00,VWS V14.00,2013-09-07 20:15:00,
2013-09-07 15:21:00,83.9,72.2,29.82,ESE,109,0.0,0.0,68,0.00,,---,0.00,615.00,VWS V14.00,2013-09-07 20:21:00,
2013-09-07 15:26:00,83.9,71.8,29.83,ESE,109,0.0,0.0,67,0.00,,---,0.00,264.00,VWS V14.00,2013-09-07 20:26:00,
2013-09-07 15:31:00,83.9,72.2,29.82,ESE,109,0.0,0.0,68,0.00,,---,0.00,258.00,VWS V14.00,2013-09-07 20:31:00,
2013-09-07 15:36:00,83.9,71.8,29.83,ESE,109,0.0,0.0,67,0.00,,---,0.00,250.00,VWS V14.00,2013-09-07 20:36:00,
2013-09-07 15:41:00,83.9,71.8,29.83,ESE,109,0.0,0.0,67,0.00,,---,0.00,304.00,VWS V14.00,2013-09-07 20:41:00,
2013-09-07 15:46:00,83.8,72.1,29.82,ESE,109,0.0,0.0,68,0.00,,---,0.00,283.00,VWS V14.00,2013-09-07 20:46:00,
2013-09-07 15:51:00,83.8,72.1,29.82,ESE,108,0.0,0.0,68,0.00,,---,0.00,364.00,VWS V14.00,2013-09-07 20:51:00,
2013-09-07 15:56:00,83.9,73.9,29.83,East,89,0.0,0.0,72,0.00,,---,0.00,206.00,VWS V14.00,2013-09-07 20:56:00,
2013-09-07 16:01:00,83.9,73.9,29.83,East,84,0.0,0.0,72,0.00,,---,0.00,162.00,VWS V14.00,2013-09-07 21:01:00,
2013-09-07 16:07:00,83.8,73.8,29.82,ENE,76,0.0,0.0,72,0.00,,---,0.00,148.00,VWS V14.00,2013-09-07 21:07:00,
2013-09-07 16:12:00,83.4,73.4,29.83,ENE,71,0.0,0.0,72,0.00,,---,0.00,137.00,VWS V14.00,2013-09-07 21:12:00,
2013-09-07 16:17:00,82.9,73.4,29.83,ENE,69,0.0,0.0,73,0.00,,---,0.00,128.00,VWS V14.00,2013-09-07 21:17:00,
2013-09-07 16:22:00,82.7,73.6,29.82,ENE,69,0.0,0.0,74,0.00,,---,0.00,135.00,VWS V14.00,2013-09-07 21:22:00,
2013-09-07 16:27:00,82.4,73.7,29.82,ENE,69,0.0,0.0,75,0.00,,---,0.00,336.00,VWS V14.00,2013-09-07 21:27:00,
2013-09-07 16:32:00,82.2,73.9,29.82,ENE,69,0.0,0.0,76,0.00,,---,0.00,186.00,VWS V14.00,2013-09-07 21:32:00,
2013-09-07 16:37:00,82.0,73.7,29.82,ENE,69,0.0,0.0,76,0.00,,---,0.00,181.00,VWS V14.00,2013-09-07 21:37:00,
2013-09-07 16:42:00,82.0,74.1,29.82,ENE,69,0.0,0.0,77,0.00,,---,0.00,172.00,VWS V14.00,2013-09-07 21:42:00,
2013-09-07 16:47:00,81.8,73.5,29.82,ENE,69,0.0,0.0,76,0.00,,---,0.00,193.00,VWS V14.00,2013-09-07 21:47:00,
2013-09-07 16:53:00,81.8,73.5,29.82,ENE,69,0.0,0.0,76,0.00,,---,0.00,186.00,VWS V14.00,2013-09-07 21:53:00,
2013-09-07 16:58:00,81.8,73.5,29.82,ENE,69,0.0,0.0,76,0.00,,---,0.00,236.00,VWS V14.00,2013-09-07 21:58:00,
2013-09-07 17:03:00,81.8,73.5,29.81,ENE,69,0.0,0.0,76,0.00,,---,0.00,167.00,VWS V14.00,2013-09-07 22:03:00,
2013-09-07 17:08:00,81.8,73.5,29.81,ENE,69,0.0,0.0,76,0.00,,---,0.00,179.00,VWS V14.00,2013-09-07 22:08:00,
2013-09-07 17:13:00,81.8,73.9,29.82,ENE,69,0.0,0.0,77,0.00,,---,0.00,250.00,VWS V14.00,2013-09-07 22:13:00,
2013-09-07 17:18:00,81.8,73.5,29.81,ENE,69,0.0,0.0,76,0.00,,---,0.00,149.00,VWS V14.00,2013-09-07 22:18:00,
2013-09-07 17:23:00,81.9,73.6,29.81,ENE,69,0.0,0.0,76,0.00,,---,0.00,183.00,VWS V14.00,2013-09-07 22:23:00,
2013-09-07 17:28:00,81.9,74.0,29.81,ENE,69,0.0,0.0,77,0.00,,---,0.00,200.00,VWS V14.00,2013-09-07 22:28:00,
2013-09-07 17:33:00,81.9,74.0,29.82,ENE,69,0.0,0.0,77,0.00,,---,0.00,218.00,VWS V14.00,2013-09-07 22:33:00,
2013-09-07 17:38:00,81.8,73.5,29.82,ENE,69,0.0,0.0,76,0.00,,---,0.00,146.00,VWS V14.00,2013-09-07 22:38:00,
2013-09-07 17:43:00,81.8,73.9,29.82,ENE,69,0.0,1.0,77,0.00,,---,0.00,162.00,VWS V14.00,2013-09-07 22:43:00,
2013-09-07 17:49:00,81.9,74.0,29.81,ENE,69,0.0,0.0,77,0.00,,---,0.00,142.00,VWS V14.00,2013-09-07 22:49:00,
2013-09-07 17:54:00,81.9,74.0,29.81,ENE,69,0.0,1.0,77,0.00,,---,0.00,158.00,VWS V14.00,2013-09-07 22:54:00,
2013-09-07 17:59:00,81.9,74.0,29.82,ENE,69,0.0,1.0,77,0.00,,---,0.00,167.00,VWS V14.00,2013-09-07 22:59:00,
2013-09-07 18:04:00,81.8,73.5,29.82,ENE,68,0.0,1.0,76,0.00,,---,0.00,148.00,VWS V14.00,2013-09-07 23:04:00,
2013-09-07 18:09:00,81.8,73.1,29.82,ENE,65,0.0,1.0,75,0.00,,---,0.00,148.00,VWS V14.00,2013-09-07 23:09:00,
2013-09-07 18:14:00,81.9,73.2,29.82,ENE,64,0.0,1.0,75,0.00,,---,0.00,137.00,VWS V14.00,2013-09-07 23:14:00,
2013-09-07 18:19:00,82.0,73.3,29.82,ENE,64,0.0,0.0,75,0.00,,---,0.00,144.00,VWS V14.00,2013-09-07 23:19:00,
2013-09-07 18:24:00,82.1,73.4,29.82,ENE,64,0.0,0.0,75,0.00,,---,0.00,93.00,VWS V14.00,2013-09-07 23:24:00,
2013-09-07 18:29:00,82.1,72.6,29.82,ENE,58,0.0,1.0,73,0.00,,---,0.00,76.00,VWS V14.00,2013-09-07 23:29:00,
2013-09-07 18:34:00,82.0,72.9,29.83,ENE,58,0.0,1.0,74,0.00,,---,0.00,63.00,VWS V14.00,2013-09-07 23:34:00,
2013-09-07 18:39:00,81.9,72.8,29.82,ENE,58,0.0,0.0,74,0.00,,---,0.00,47.00,VWS V14.00,2013-09-07 23:39:00,
2013-09-07 18:44:00,81.8,73.1,29.82,ENE,58,0.0,0.0,75,0.00,,---,0.00,42.00,VWS V14.00,2013-09-07 23:44:00,
2013-09-07 18:50:00,81.6,72.9,29.81,ENE,58,0.0,1.0,75,0.00,,---,0.00,49.00,VWS V14.00,2013-09-07 23:50:00,
2013-09-07 18:55:00,81.4,72.7,29.81,ENE,58,0.0,1.0,75,0.00,,---,0.00,46.00,VWS V14.00,2013-09-07 23:55:00,
2013-09-07 19:00:00,81.2,72.9,29.83,ENE,58,0.0,1.0,76,0.00,,---,0.00,35.00,VWS V14.00,2013-09-08 00:00:00,
2013-09-07 19:05:00,81.0,72.7,29.82,ENE,58,0.0,1.0,76,0.00,,---,0.00,32.00,VWS V14.00,2013-09-08 00:05:00,
2013-09-07 19:10:00,80.9,73.0,29.82,ENE,58,0.0,0.0,77,0.00,,---,0.00,28.00,VWS V14.00,2013-09-08 00:10:00,
2013-09-07 19:15:00,80.7,72.8,29.82,ENE,58,0.0,1.0,77,0.00,,---,0.00,25.00,VWS V14.00,2013-09-08 00:15:00,
2013-09-07 19:20:00,80.4,72.9,29.82,ENE,58,0.0,1.0,78,0.00,,---,0.00,21.00,VWS V14.00,2013-09-08 00:20:00,
2013-09-07 19:25:00,80.2,72.7,29.82,ENE,58,0.0,1.0,78,0.00,,---,0.00,18.00,VWS V14.00,2013-09-08 00:25:00,
2013-09-07 19:30:00,80.0,72.9,29.82,ENE,58,0.0,1.0,79,0.00,,---,0.00,12.00,VWS V14.00,2013-09-08 00:30:00,
2013-09-07 19:35:00,79.8,72.7,29.82,ENE,58,0.0,1.0,79,0.00,,---,0.00,7.00,VWS V14.00,2013-09-08 00:35:00,
2013-09-07 19:40:00,79.6,72.5,29.82,ENE,58,0.0,0.0,79,0.00,,---,0.00,5.00,VWS V14.00,2013-09-08 00:40:00,
2013-09-07 19:45:00,79.4,72.3,29.82,ENE,58,0.0,0.0,79,0.00,,---,0.00,0.00,VWS V14.00,2013-09-08 00:45:00,
2013-09-07 19:50:00,79.1,72.4,29.83,ENE,58,0.0,0.0,80,0.00,,---,0.00,0.00,VWS V14.00,2013-09-08 00:50:00,
2013-09-07 19:55:00,78.9,72.2,29.83,ENE,58,0.0,0.0,80,0.00,,---,0.00,0.00,VWS V14.00,2013-09-08 00:55:00,
2013-09-07 20:00:00,78.7,72.0,29.83,ENE,58,0.0,1.0,80,0.00,,---,0.00,0.00,VWS V14.00,2013-09-08 01:00:00,
2013-09-07 20:05:00,78.4,72.1,29.83,ENE,58,0.0,1.0,81,0.00,,---,0.00,0.00,VWS V14.00,2013-09-08 01:05:00,
2013-09-07 20:10:00,78.2,71.9,29.83,ENE,58,0.0,1.0,81,0.00,,---,0.00,0.00,VWS V14.00,2013-09-08 01:10:00,
2013-09-07 20:15:00,77.9,72.0,29.83,ENE,58,0.0,1.0,82,0.00,,---,0.00,0.00,VWS V14.00,2013-09-08 01:15:00,
2013-09-07 20:20:00,77.7,71.8,29.83,ENE,58,0.0,1.0,82,0.00,,---,0.00,0.00,VWS V14.00,2013-09-08 01:20:00,
2013-09-07 20:25:00,77.5,71.9,29.83,ENE,58,0.0,0.0,83,0.00,,---,0.00,0.00,VWS V14.00,2013-09-08 01:25:00,
2013-09-07 20:30:00,77.3,71.7,29.83,ENE,57,0.0,1.0,83,0.00,,---,0.00,0.00,VWS V14.00,2013-09-08 01:30:00,
2013-09-07 20:35:00,77.2,72.0,29.83,ENE,58,0.0,0.0,84,0.00,,---,0.00,0.00,VWS V14.00,2013-09-08 01:35:00,
2013-09-07 20:40:00,77.0,71.8,29.83,ENE,57,0.0,1.0,84,0.00,,---,0.00,0.00,VWS V14.00,2013-09-08 01:40:00,
2013-09-07 20:45:00,76.9,72.1,29.82,ENE,58,0.0,1.0,85,0.00,,---,0.00,0.00,VWS V14.00,2013-09-08 01:45:00,
2013-09-07 20:50:00,76.9,72.1,29.83,ENE,57,0.0,1.0,85,0.00,,---,0.00,0.00,VWS V14.00,2013-09-08 01:50:00,
2013-09-07 20:55:00,76.8,71.9,29.83,ENE,58,0.0,1.0,85,0.00,,---,0.00,0.00,VWS V14.00,2013-09-08 01:55:00,
2013-09-07 21:00:00,76.8,71.9,29.83,ENE,58,0.0,0.0,85,0.00,,---,0.00,0.00,VWS V14.00,2013-09-08 02:00:00,
2013-09-07 21:05:00,76.8,71.9,29.83,ENE,58,0.0,1.0,85,0.00,,---,0.00,0.00,VWS V14.00,2013-09-08 02:05:00,
2013-09-07 21:10:00,76.8,71.9,29.83,ENE,58,0.0,0.0,85,0.00,,---,0.00,0.00,VWS V14.00,2013-09-08 02:10:00,
2013-09-07 21:15:00,76.7,71.9,29.83,ENE,58,0.0,0.0,85,0.00,,---,0.00,0.00,VWS V14.00,2013-09-08 02:15:00,
2013-09-07 21:20:00,76.7,71.9,29.83,ENE,58,0.0,0.0,85,0.00,,---,0.00,0.00,VWS V14.00,2013-09-08 02:20:00,
2013-09-07 21:25:00,76.6,72.1,29.84,ENE,58,0.0,0.0,86,0.00,,---,0.00,0.00,VWS V14.00,2013-09-08 02:25:00,
2013-09-07 21:30:00,76.6,72.1,29.84,ENE,58,0.0,0.0,86,0.00,,---,0.00,0.00,VWS V14.00,2013-09-08 02:30:00,
2013-09-07 21:35:00,76.5,72.0,29.84,ENE,58,0.0,1.0,86,0.00,,---,0.00,0.00,VWS V14.00,2013-09-08 02:35:00,
2013-09-07 21:40:00,76.4,71.9,29.84,ENE,58,0.0,0.0,86,0.00,,---,0.00,0.00,VWS V14.00,2013-09-08 02:40:00,
2013-09-07 21:45:00,76.3,71.8,29.84,ENE,58,0.0,0.0,86,0.00,,---,0.00,0.00,VWS V14.00,2013-09-08 02:45:00,
2013-09-07 21:50:00,76.2,71.7,29.84,ENE,58,0.0,0.0,86,0.00,,---,0.00,0.00,VWS V14.00,2013-09-08 02:50:00,
2013-09-07 21:55:00,76.1,71.6,29.84,ENE,58,0.0,0.0,86,0.00,,---,0.00,0.00,VWS V14.00,2013-09-08 02:55:00,
2013-09-07 22:00:00,76.0,71.5,29.84,ENE,58,0.0,0.0,86,0.00,,---,0.00,0.00,VWS V14.00,2013-09-08 03:00:00,
2013-09-07 22:05:00,75.9,71.4,29.84,ENE,58,0.0,0.0,86,0.00,,---,0.00,0.00,VWS V14.00,2013-09-08 03:05:00,
2013-09-07 22:10:00,75.8,71.7,29.84,ENE,58,0.0,0.0,87,0.00,,---,0.00,0.00,VWS V14.00,2013-09-08 03:10:00,
2013-09-07 22:15:00,75.7,71.6,29.84,ENE,58,0.0,0.0,87,0.00,,---,0.00,0.00,VWS V14.00,2013-09-08 03:15:00,
2013-09-07 22:20:00,75.6,71.5,29.84,ENE,58,0.0,0.0,87,0.00,,---,0.00,0.00,VWS V14.00,2013-09-08 03:20:00,
2013-09-07 22:25:00,75.4,71.3,29.85,ENE,58,0.0,0.0,87,0.00,,---,0.00,0.00,VWS V14.00,2013-09-08 03:25:00,
2013-09-07 22:30:00,75.4,71.3,29.85,ENE,58,0.0,0.0,87,0.00,,---,0.00,0.00,VWS V14.00,2013-09-08 03:30:00,
2013-09-07 22:35:00,75.3,71.2,29.85,ENE,58,0.0,0.0,87,0.00,,---,0.00,0.00,VWS V14.00,2013-09-08 03:35:00,
2013-09-07 22:40:00,75.1,71.0,29.85,ENE,58,0.0,0.0,87,0.00,,---,0.00,0.00,VWS V14.00,2013-09-08 03:40:00,
2013-09-07 22:45:00,75.0,71.2,29.85,ENE,57,0.0,0.0,88,0.00,,---,0.00,0.00,VWS V14.00,2013-09-08 03:45:00,
2013-09-07 22:50:00,75.0,71.2,29.84,ENE,58,0.0,0.0,88,0.00,,---,0.00,0.00,VWS V14.00,2013-09-08 03:50:00,
2013-09-07 22:55:00,74.9,71.1,29.85,ENE,58,0.0,0.0,88,0.00,,---,0.00,0.00,VWS V14.00,2013-09-08 03:55:00,
2013-09-07 23:00:00,74.7,70.9,29.84,ENE,58,0.0,0.0,88,0.00,,---,0.00,0.00,VWS V14.00,2013-09-08 04:00:00,
2013-09-07 23:01:00,74.7,70.9,29.84,ENE,58,0.0,0.0,88,0.00,,---,0.00,0.00,VWS V14.00,2013-09-08 04:01:00,
2013-09-07 23:06:00,74.6,70.8,29.85,ENE,58,0.0,0.0,88,0.00,,---,0.00,0.00,VWS V14.00,2013-09-08 04:06:00,
2013-09-07 23:12:00,74.5,71.1,29.85,ENE,58,0.0,0.0,89,0.00,,---,0.00,0.00,VWS V14.00,2013-09-08 04:12:00,
2013-09-07 23:17:00,74.4,70.9,29.85,ENE,58,0.0,0.0,89,0.00,,---,0.00,0.00,VWS V14.00,2013-09-08 04:17:00,
2013-09-07 23:20:00,74.3,70.8,29.85,ENE,58,0.0,0.0,89,0.00,,---,0.00,0.00,VWS V14.00,2013-09-08 04:20:00,
2013-09-07 23:25:00,74.1,70.7,29.85,ENE,58,0.0,0.0,89,0.00,,---,0.00,0.00,VWS V14.00,2013-09-08 04:25:00,
2013-09-07 23:30:00,74.0,70.6,29.85,ENE,58,0.0,0.0,89,0.00,,---,0.00,0.00,VWS V14.00,2013-09-08 04:30:00,
2013-09-07 23:35:00,73.8,70.0,29.85,ENE,58,0.0,0.0,88,0.00,,---,0.00,0.00,VWS V14.00,2013-09-08 04:35:00,
2013-09-07 23:40:00,73.6,70.2,29.84,ENE,58,0.0,0.0,89,0.00,,---,0.00,0.00,VWS V14.00,2013-09-08 04:40:00,
2013-09-07 23:45:00,73.3,69.9,29.85,ENE,58,0.0,0.0,89,0.00,,---,0.00,0.00,VWS V14.00,2013-09-08 04:45:00,
2013-09-07 23:50:00,73.1,69.7,29.85,ENE,58,0.0,0.0,89,0.00,,---,0.00,0.00,VWS V14.00,2013-09-08 04:50:00,
2013-09-07 23:55:00,72.9,69.5,29.85,ENE,58,0.0,0.0,89,0.00,,---,0.00,0.00,VWS V14.00,2013-09-08 04:55:00,